Rbgn^[z[y[W
メイン
   新天体発見情報
     Comet C/2019 Y1 (ATLAS)
投稿するにはまず登録を

スレッド表示 | 新しいものから 前のトピック | 次のトピック | 下へ
投稿者 スレッド
佐藤裕久
投稿日時: 2020-1-26 15:27
モデレータ
登録日: 2005-6-12
居住地: 日本
投稿: 2048
オンライン
Comet C/2019 Y1 (ATLAS)

J. Robinsonは、2019年12月16日UT、ATLAS-HKO サーベイ(T05)によって彗星らしい天体
(PCCP A10iMHA)として通報した。20"の集光したp.a.80°に伸びたコマがあるが尾はない。

彗星機能の追加報告は次の通り:

OC   Date     Reporter           Coma    Tail    PA          Exposures
807  Dec. 17  T. Linder           6"      2"    180
Q62  Dec. 17  H. Sato            45"                         10x60s
W88  Dec. 21  B. Ltkenhner       12"
W76  Dec. 22  E. Bryssinck       36"     27"     78          20x60s
G39  Dec. 23  E. Bryssinck        1'                         30x60s
J04  Dec. 23  M. Micheli         30"
Q62  Dec. 25  K. Yoshimoto       1'.4
349  Dec. 28  K. Kadota          1'.5
Q62  Dec. 30  H. Sato            1'.5                         8x60s
X74  Dec. 31  L. S. Amaral       27"                          3x60s
204  Jan. 04  L. Buzzi           12"                         90x20s

発見位置は次のとおり、

     2019 UT             R.A. (2000) Decl.       Mag.
     Dec. 16.22625   23 50 18.15   -40 27 18.4   17.9
          16.23086   23 50 17.66   -40 27 06.6   19.1
          16.23686   23 50 17.40   -40 26 51.2   20.1
          16.25411   23 50 16.43   -40 26 09.7   17.4

MPCの放物線軌道要素と位置推算表は次のとおり、

Orbital elements:
    C/2019 Y1 (ATLAS)                                                           
T 2020 Mar. 15.54689 TT                                 Rudenko                 
q   0.8416969            (2000.0)            P               Q                  
                   Peri.   57.20588     +0.33833505     -0.79877647             
                   Node    31.27131     +0.12572458     -0.48554704             
e   1.0            Incl.   73.40868     +0.93258926     +0.35524672             
From 125 observations 2019 Dec. 16-2020 Jan. 5.                                 
                                                                                
Ephemeris:
Date    TT    R. A. (2000) Decl.     Delta      r    Elong.  Phase   m1
2019 12 06    00 04 17.8 -47 11 23   1.6907  1.8939    85.8    31.3  17.6
...
2019 12 21    23 46 04.2 -37 07 21   1.6647  1.6955    74.7    34.0  17.1
...
2019 12 29    23 41 34.3 -31 22 00   1.6609  1.5895    68.5    35.1  16.8
...
2020 01 04    23 39 55.6 -26 57 13   1.6608  1.5102    63.8    35.7  16.6
2020 01 05    23 39 46.3 -26 12 45   1.6610  1.4970    63.0    35.8  16.6
2020 01 06    23 39 38.8 -25 28 11   1.6612  1.4839    62.2    35.9  16.5
...
2020 01 12    23 39 29.5 -20 59 16   1.6626  1.4055    57.5    36.2  16.3
...
2020 01 20    23 40 35.1 -14 57 03   1.6645  1.3026    51.4    36.2  16.0
...
2020 02 04    23 45 22.6 -03 25 51   1.6594  1.1203    41.0    35.2  15.3

(MPEC 2020-A72、CBET 4708)

スレッド表示 | 新しいものから 前のトピック | 次のトピック | トップ

投稿するにはまず登録を
 
© 1999 Tsutomu Seki.